Wind_Speed
15 19 22 25 24 22 23 21 18 17 15 15 14 14 14 13 14 15 15 15 15 15 15 14 13 13 13 14 15 16 18 20 22 24 25 26 27 28 30 32 33 34 34 34 34 35 36 37 39 40 42 44 47 49 50 52 53 55 57 60 62 63 64 65 67 68 68 69 70 73 75 78 79 78 77 74 70 67 64 61 59 57 55 53 53
17 18 16 19 21 22 25 25 24 24 23 21 20 19 18 18 17 17 16 16 15 15 15 15 14 14 15 16 17 19 20 22 24 26 27 28 29 30 32 33 34 35 35 35 35 36 37 38 39 41 43 45 47 49 51 53 55 58 61 63 65 66 67 69 70 71 71 72 74 77 79 81 81 79 77 74 70 66 62 59 57 56 55 54 53
19 17 12 13 16 16 20 23 24 25 25 25 23 21 20 20 21 21 20 19 18 17 16 16 16 16 17 18 19 21 23 25 27 29 30 31 32 33 34 34 35 36 36 36 36 37 38 39 41 42 44 45 47 49 52 55 58 61 63 65 67 69 70 71 72 73 75 77 79 81 82 81 80 77 74 71 68 65 61 58 55 54 53 53 53
20 17 11 11 14 14 16 19 22 25 28 27 24 23 22 21 22 23 23 23 22 21 20 19 18 18 19 21 22 24 25 27 29 31 33 34 35 35 35 36 37 37 37 37 38 39 40 41 42 44 46 47 49 52 54 58 61 63 66 68 69 71 73 73 74 76 78 82 84 83 82 80 77 73 69 66 65 63 61 58 55 53 52 52 52
21 19 13 12 15 16 16 19 22 26 27 25 24 25 24 23 23 24 24 25 24 24 24 24 24 23 23 24 25 27 28 30 31 33 34 35 36 37 37 38 38 38 38 39 40 41 42 43 45 47 49 51 53 56 58 60 62 65 68 70 72 73 74 75 77 79 81 84 85 83 80 76 73 68 64 61 60 60 59 58 56 53 52 51 50
21 19 15 14 15 16 17 20 23 25 24 23 25 25 23 23 24 24 25 26 26 27 28 30 31 31 31 31 32 32 32 33 34 35 36 37 37 38 38 38 39 39 39 40 42 43 44 46 48 50 52 54 56 58 60 62 65 67 69 71 73 75 76 78 79 81 82 83 82 80 77 72 67 63 59 56 57 57 56 56 55 54 53 52 51
19 18 16 13 13 16 19 21 23 22 20 22 25 25 22 22 23 23 26 28 29 31 33 34 36 37 37 37 38 38 38 37 37 37 37 38 38 38 38 38 39 40 41 43 44 46 47 48 50 52 55 57 59 60 63 65 67 69 71 73 75 77 79 80 81 81 81 79 77 74 71 68 62 59 56 54 55 55 54 52 52 52 52 53 52
19 19 19 17 16 19 19 20 20 19 20 24 25 22 20 21 22 25 29 32 35 37 37 37 38 39 40 41 42 43 42 42 41 40 40 40 40 39 39 39 40 41 43 45 47 48 49 51 53 55 57 59 61 64 66 68 70 72 74 76 78 80 81 82 81 79 76 72 68 65 62 60 57 55 54 54 54 54 53 51 49 49 50 52 52
21 22 23 22 20 20 19 18 18 19 22 26 24 19 20 24 27 30 33 35 36 38 37 37 39 41 42 43 45 46 46 46 45 44 44 44 43 42 41 41 42 43 45 47 48 50 51 54 56 58 60 62 64 66 68 71 73 75 77 79 81 82 82 81 78 74 70 65 61 58 55 53 51 51 51 51 52 52 51 50 48 47 47 49 51
22 23 23 21 20 20 20 20 20 21 24 26 25 22 22 27 31 33 33 33 35 36 37 39 42 43 43 45 48 49 49 49 48 47 47 47 46 45 44 45 45 46 47 48 50 52 54 56 58 60 62 64 66 68 71 73 75 77 79 81 83 82 80 77 73 69 64 60 57 54 52 49 48 48 48 48 49 50 50 49 47 46 46 47 49
24 23 21 19 18 21 24 24 24 24 25 26 27 24 25 30 34 35 34 34 36 38 41 43 44 45 46 48 49 50 50 50 50 49 48 47 47 46 47 47 48 48 50 51 53 55 57 58 60 62 64 67 70 72 74 76 77 79 81 81 81 79 75 72 68 65 62 58 55 52 50 48 47 46 46 45 45 46 46 46 45 44 44 44 46
25 23 21 19 19 22 25 26 27 26 24 25 25 26 29 34 37 37 37 38 39 42 43 44 45 47 49 49 48 49 50 50 50 49 48 47 47 47 48 48 49 50 51 53 54 56 58 60 62 65 68 71 73 75 77 79 80 81 81 79 76 73 70 68 66 63 60 56 53 50 49 47 45 44 44 43 42 42 43 43 42 42 42 42 42
24 23 22 21 21 23 25 26 27 27 25 24 25 28 31 34 37 40 41 41 42 43 45 46 48 49 49 47 47 48 49 49 49 48 48 48 48 48 48 49 49 50 51 53 55 57 60 62 65 68 71 73 75 77 80 81 82 81 78 75 71 68 66 65 63 60 57 53 50 48 47 46 43 42 42 42 41 40 40 40 40 40 40 40 39
22 23 23 23 23 25 26 26 26 27 27 26 28 30 32 36 40 43 44 45 45 46 48 49 51 50 48 46 47 48 48 48 48 47 47 48 48 48 48 48 49 50 52 54 57 59 62 65 68 70 72 74 77 79 81 81 79 77 74 70 67 65 63 61 58 55 52 49 47 45 44 44 43 41 41 41 40 39 38 38 38 38 39 38 37
23 23 23 23 23 23 24 26 27 26 26 26 28 32 34 37 40 42 45 47 48 48 49 50 49 47 45 45 47 48 48 47 47 47 47 47 46 46 46 47 48 51 53 56 58 61 64 67 69 70 73 76 78 80 79 77 75 71 69 66 64 62 59 56 53 50 47 46 44 43 42 42 42 41 40 39 38 37 36 36 35 35 35 35 35
24 24 21 20 20 22 24 27 28 27 26 27 29 33 36 38 41 43 45 46 46 47 47 47 47 46 45 46 48 47 46 46 46 46 45 45 44 44 45 47 50 52 55 57 60 63 65 67 69 71 75 77 79 78 76 73 70 67 64 62 59 57 54 51 48 46 43 43 42 42 41 40 40 39 38 36 35 33 33 32 32 31 31 31 31
25 25 23 20 21 23 25 27 28 29 29 30 32 34 37 39 42 44 44 44 44 45 46 48 47 47 46 47 47 46 45 45 44 44 43 42 43 44 46 49 52 54 57 59 62 63 65 67 71 74 77 77 76 74 72 69 66 63 61 58 55 52 50 48 46 44 42 41 40 39 39 38 37 36 34 32 29 29 29 29 29 29 28 27 27
26 27 27 26 26 27 26 25 26 29 30 32 33 35 37 40 42 43 43 42 43 45 47 47 46 46 48 47 45 44 43 43 42 41 41 42 43 45 48 51 53 55 58 60 62 64 66 70 73 76 75 74 72 70 67 64 61 59 56 53 51 50 48 46 44 42 41 40 39 38 36 35 33 31 29 26 25 26 26 26 26 25 25 23 23
27 28 30 30 29 30 27 24 25 29 31 32 33 35 37 39 39 39 39 41 43 45 46 44 45 47 47 45 43 42 41 40 40 40 40 42 44 47 50 51 54 56 58 60 62 66 70 73 75 74 73 71 68 65 62 59 56 54 51 49 48 47 46 44 41 40 39 38 38 37 35 33 30 27 24 23 23 23 22 21 21 21 20 19 19
26 27 28 27 27 28 28 27 29 31 32 32 32 34 35 35 35 36 37 39 41 42 42 43 45 45 43 41 40 39 38 38 39 39 41 43 46 48 50 52 54 56 58 60 64 69 73 74 74 72 69 67 64 61 58 55 52 49 47 45 45 45 43 41 39 37 36 35 35 34 32 30 27 23 20 19 19 18 17 16 17 16 16 15 14
24 24 24 23 23 24 26 27 28 29 29 30 30 32 33 33 33 35 36 38 38 40 41 42 42 40 39 38 37 36 36 37 38 39 42 44 46 48 50 52 54 56 59 63 68 72 74 73 71 68 65 62 59 56 54 51 48 46 44 43 43 43 41 39 36 34 33 33 31 30 28 26 23 20 17 16 15 14 13 12 12 12 12 11 9
20 19 17 17 18 19 22 24 25 25 25 26 27 29 31 32 33 34 35 35 36 37 37 37 36 35 35 35 34 34 35 36 38 40 42 44 46 48 50 53 55 58 62 67 71 73 72 70 67 63 60 57 54 52 49 47 45 44 43 43 42 42 40 37 34 32 31 30 28 26 24 21 18 16 15 14 12 11 10 9 8 8 8 7 5
12 12 12 13 14 17 20 22 23 24 24 24 25 27 29 30 31 31 32 32 32 32 32 31 32 32 32 32 32 33 35 37 39 41 42 44 46 49 51 54 57 61 66 70 72 72 69 66 62 59 56 54 51 47 45 45 44 44 43 42 42 41 38 35 32 30 29 27 25 23 20 18 16 14 13 12 10 10 9 8 6 4 4 3 2
6 7 9 11 13 16 19 21 20 21 23 24 24 26 26 26 26 26 27 27 27 27 28 28 29 29 30 31 33 34 35 37 39 41 43 45 47 49 52 56 60 64 69 72 72 69 66 62 59 57 55 53 49 45 43 43 44 44 43 42 41 39 36 33 30 29 27 25 23 21 18 16 14 12 11 10 9 8 8 7 6 4 3 2 2
4 6 9 11 14 16 17 18 17 17 18 19 19 20 21 21 22 23 23 24 25 25 26 27 28 29 31 33 34 36 37 39 40 42 44 46 48 51 54 58 62 67 70 71 69 66 63 59 57 56 55 52 49 46 44 43 44 43 42 41 40 38 35 31 29 27 25 23 21 19 16 14 12 11 10 8 7 7 7 6 5 4 3 3 4
5 7 10 12 14 14 14 15 16 16 16 17 18 19 21 22 22 23 24 25 26 26 27 28 30 31 33 35 36 38 39 41 42 44 45 47 49 53 56 60 64 68 69 68 66 63 60 58 57 58 56 54 51 48 47 46 45 43 41 40 39 36 33 29 27 25 24 22 19 17 14 11 10 9 8 8 7 6 6 6 5 4 3 3 4
7 8 10 11 11 10 10 12 15 16 18 21 22 24 26 26 26 26 26 27 28 28 29 30 32 34 36 38 39 40 41 42 44 45 46 48 51 54 58 62 65 67 67 65 63 60 58 57 59 59 57 55 53 51 50 49 47 44 42 39 37 35 32 28 26 24 22 20 17 14 11 9 8 7 7 7 6 6 6 5 5 4 4 4 5
10 11 12 12 11 9 9 12 16 18 20 23 25 28 30 30 29 28 29 29 30 30 31 32 34 36 38 39 40 41 42 43 44 45 47 50 53 56 59 62 65 66 64 62 60 58 58 58 60 59 57 55 54 54 52 50 47 44 41 38 35 33 30 27 24 22 21 19 16 13 10 8 7 6 6 5 5 5 5 5 5 5 5 5 6
14 15 15 15 13 10 9 13 18 20 21 22 24 27 30 31 29 27 28 30 31 31 32 33 34 36 38 41 43 43 42 43 45 46 48 51 53 56 60 63 64 63 62 60 59 58 59 60 61 61 59 57 57 56 54 51 48 44 40 36 34 31 28 25 23 21 19 18 16 13 10 7 6 5 5 5 5 5 5 6 6 6 6 7 7
17 18 17 16 13 10 9 13 17 17 16 18 22 25 27 28 27 26 26 28 30 30 31 32 34 36 40 43 45 45 44 44 45 47 49 51 53 57 60 62 62 61 59 58 58 58 60 62 63 63 61 60 60 59 56 52 49 44 39 36 32 30 27 24 22 20 18 17 16 13 10 7 6 5 5 5 5 5 5 6 6 6 7 8 9
19 19 19 17 15 13 12 14 15 14 14 16 20 23 25 25 24 24 24 26 28 29 31 32 35 38 41 43 44 45 45 45 46 47 49 51 54 57 60 61 60 58 58 58 58 58 60 61 63 63 63 62 62 61 58 54 50 45 40 35 32 29 27 24 21 19 17 16 15 14 11 8 6 5 5 5 5 5 5 6 6 6 7 8 10
20 20 19 18 17 18 18 18 17 15 16 19 21 23 24 23 22 22 22 24 26 28 31 35 38 41 42 43 44 45 45 46 46 47 49 51 54 57 59 59 57 57 57 57 57 58 58 60 62 63 62 62 61 60 58 54 50 45 40 36 33 30 27 24 22 20 18 16 15 14 12 10 7 5 5 5 5 5 5 6 6 6 7 8 9
23 23 22 21 21 22 23 24 23 23 23 23 23 24 25 24 23 24 24 25 28 32 36 41 44 44 43 43 44 45 45 45 46 47 48 50 53 57 58 57 55 55 55 56 56 56 57 58 60 61 61 60 60 59 57 54 51 46 41 37 34 31 28 26 23 21 19 17 15 14 12 10 8 6 5 5 5 4 5 6 6 6 6 7 8
21 23 24 25 25 26 26 27 28 29 29 26 25 29 32 32 31 31 32 34 37 39 42 45 45 43 42 42 43 44 44 44 45 46 47 49 52 56 56 54 53 53 54 54 54 54 55 56 58 59 59 58 58 57 56 55 52 48 44 40 37 34 31 28 26 23 21 18 16 14 13 11 9 7 6 4 4 4 5 6 6 6 7 7 7
18 19 21 24 25 26 27 28 29 30 30 29 30 34 37 37 36 37 40 42 43 43 43 43 42 41 40 41 42 43 43 43 43 44 46 48 51 55 55 52 51 51 52 52 52 52 52 53 55 56 56 56 55 56 55 54 53 50 47 44 41 37 34 31 29 26 23 20 18 16 14 12 11 9 7 5 4 4 5 5 6 7 7 7 8
19 19 20 21 22 24 25 27 29 30 30 30 30 32 36 38 39 40 42 43 43 42 41 40 39 39 39 39 41 41 41 41 41 42 44 47 50 53 53 50 49 50 49 49 50 50 50 50 51 52 53 53 53 54 54 54 53 51 49 46 44 41 38 35 32 30 26 23 20 17 15 13 12 10 8 7 5 4 4 5 6 6 7 8 8
23 23 22 22 22 23 24 26 27 29 29 30 31 32 35 38 39 39 40 40 40 39 38 37 37 37 37 38 39 39 39 39 39 40 42 45 48 51 51 48 47 48 47 47 47 47 47 47 48 49 50 50 51 51 52 53 53 52 50 48 46 44 42 39 37 34 31 28 24 21 18 15 12 10 9 7 6 5 4 4 5 6 7 8 9
25 26 25 25 25 25 25 26 26 27 27 28 30 32 34 35 36 37 38 38 38 37 36 35 35 35 35 36 37 37 37 36 37 38 40 43 47 49 49 46 46 46 46 45 46 45 45 45 45 45 47 48 48 49 50 51 52 52 51 49 48 46 45 43 40 38 35 32 29 26 23 19 15 12 10 8 7 6 5 4 5 5 7 8 9
26 27 27 27 27 27 27 27 27 27 27 28 29 30 32 33 35 36 36 36 36 35 34 33 33 32 32 33 34 35 34 34 34 36 39 41 45 47 46 44 44 44 44 44 44 44 43 42 42 42 43 45 45 46 48 49 50 50 50 50 49 48 47 46 44 42 40 37 34 31 28 24 20 16 13 10 8 6 5 4 4 5 5 7 8
26 27 28 29 28 28 29 29 29 29 29 30 30 30 30 31 33 33 33 33 32 32 31 31 30 30 30 31 32 32 31 31 32 34 37 39 43 45 44 42 41 42 42 42 42 42 41 40 39 39 40 41 43 44 45 46 48 49 49 49 50 49 49 48 47 46 44 42 39 37 34 30 26 22 18 15 11 9 6 5 4 4 4 5 7
24 26 28 29 29 29 29 29 29 30 30 30 31 31 30 31 31 31 31 30 29 29 30 29 28 28 28 28 28 28 28 28 29 32 35 37 41 43 42 40 39 40 41 41 41 41 40 39 38 37 37 38 39 41 42 43 45 47 48 48 49 49 49 49 49 49 48 46 44 42 40 38 34 29 24 20 17 13 10 7 5 4 3 3 4
23 24 26 28 29 30 30 30 29 29 30 30 31 31 30 30 30 29 29 29 29 28 28 28 27 26 26 25 25 25 25 26 27 30 33 36 39 41 40 38 37 39 39 39 40 40 39 37 36 35 35 36 37 38 39 40 42 44 46 47 48 49 49 50 50 51 51 50 49 47 46 44 41 37 32 28 24 20 17 13 9 7 5 3 2
23 23 25 26 28 29 30 30 30 30 30 30 30 30 30 29 28 27 27 28 28 27 27 27 26 25 24 23 22 23 24 24 25 28 31 34 37 39 38 36 35 37 37 38 38 38 37 36 34 33 34 34 35 35 36 38 39 41 43 45 47 48 49 50 51 52 52 52 52 51 50 49 47 45 41 37 33 29 25 21 17 14 10 8 5
23 24 24 25 26 28 29 30 30 30 30 30 30 30 30 29 28 27 26 26 27 27 27 26 25 24 23 21 21 22 23 23 24 26 29 32 35 37 37 34 33 34 35 36 36 36 35 34 32 31 32 33 33 34 35 36 37 39 41 42 44 47 48 50 51 52 53 53 53 53 53 53 52 51 48 45 42 38 35 31 27 24 20 16 12
24 25 25 25 26 27 27 28 29 29 28 28 28 28 29 29 29 27 25 25 26 27 26 26 25 24 22 21 21 23 23 22 23 25 27 30 33 36 35 32 31 32 33 34 34 34 33 31 30 29 30 31 32 33 34 35 36 37 39 40 42 44 47 49 50 52 52 53 54 54 55 55 54 53 52 51 49 47 44 41 38 35 31 27 23
26 26 26 26 26 25 26 26 26 26 26 26 26 28 29 29 29 28 27 26 26 27 26 25 24 23 22 21 21 23 23 22 22 23 25 28 31 33 34 31 29 30 31 31 31 32 31 29 27 27 28 29 31 32 33 35 36 37 37 39 40 42 45 47 49 51 52 53 54 55 55 56 56 55 54 53 52 51 50 49 46 44 41 38 34
28 27 27 26 25 25 24 24 24 24 24 22 23 26 28 28 28 29 29 28 27 27 26 25 24 23 22 21 21 22 23 22 22 22 24 26 28 31 32 30 27 28 29 29 29 29 27 25 25 26 27 29 30 32 33 35 36 37 38 38 40 42 44 46 48 50 51 52 53 54 55 56 57 57 56 55 55 54 53 52 51 49 48 46 43
27 27 27 26 26 25 25 24 23 24 22 20 21 25 27 28 28 29 29 28 27 27 27 26 25 23 21 20 20 21 22 22 21 21 22 24 26 28 30 28 26 25 26 26 26 26 24 22 22 24 26 28 31 32 34 35 37 38 39 40 41 43 45 47 48 50 51 52 53 53 54 55 55 56 56 57 56 56 55 54 53 52 51 50 49
27 27 27 26 26 26 25 24 23 22 21 20 21 22 24 25 26 27 28 27 27 27 27 26 25 24 22 21 20 21 22 21 21 20 21 22 24 26 28 27 24 23 24 24 23 22 20 19 20 23 26 28 31 33 34 36 38 39 40 41 43 44 46 48 49 50 51 53 54 54 55 55 55 56 56 56 57 56 56 56 55 55 54 53 51
28 27 27 27 27 26 26 24 23 21 20 19 19 20 20 20 21 24 26 27 28 28 28 27 27 26 24 21 20 21 21 21 20 19 19 20 21 23 25 25 23 21 21 21 21 19 17 16 19 22 25 27 30 32 34 36 38 39 40 41 43 44 46 47 48 49 51 52 53 55 55 56 56 57 57 57 57 57 57 57 57 56 55 55 53
28 28 28 28 27 27 25 24 23 21 19 19 19 19 20 19 18 18 22 26 27 28 29 28 27 27 25 23 21 20 21 20 20 19 18 18 19 21 22 23 21 19 19 19 18 16 14 14 17 21 24 26 28 30 32 35 36 37 38 40 41 43 44 45 46 47 48 49 50 52 53 54 55 56 57 57 58 58 58 58 58 57 57 56 55
Wind_Direction
2 13 25 29 29 35 38 36 36 35 31 27 21 15 8 359 350 341 335 331 325 317 311 303 297 293 291 293 295 295 297 298 300 302 303 305 307 309 309 310 310 310 308 307 305 304 303 301 301 300 300 301 301 301 302 302 303 304 306 307 307 307 307 307 307 307 306 305 305 306 306 305 304 303 300 298 295 292 288 284 280 275 271 266 260
344 355 15 26 26 32 37 37 34 33 31 28 26 25 23 20 14 5 356 348 339 329 320 310 301 294 288 288 289 291 294 297 298 300 302 303 304 304 305 307 309 310 310 310 308 307 305 303 303 302 302 303 303 303 303 303 304 305 306 307 307 307 308 308 307 307 306 306 306 306 305 304 303 301 299 297 293 290 286 282 278 274 269 264 259
344 349 359 11 12 15 21 23 22 19 16 14 14 15 17 18 18 16 11 5 357 347 336 325 314 304 295 291 289 290 291 293 294 296 298 299 299 299 300 303 307 310 311 311 310 309 308 306 305 305 305 305 304 303 303 304 305 306 307 308 308 308 308 307 307 307 307 307 306 305 304 302 301 299 297 295 292 289 285 281 276 272 268 264 259
335 340 338 347 350 347 352 2 8 4 1 4 7 9 11 12 14 15 13 11 7 1 355 346 335 322 311 303 298 294 292 291 292 292 293 294 295 297 299 301 305 308 310 311 311 310 309 308 307 306 306 305 304 304 305 306 307 307 308 308 308 307 307 307 307 308 307 306 305 303 302 301 299 297 295 293 290 288 285 282 277 273 269 264 260
322 327 323 325 332 333 336 346 355 355 355 0 3 4 9 11 11 13 13 13 12 10 7 3 355 346 336 327 318 310 304 300 298 297 297 297 298 299 300 302 304 306 308 310 310 309 308 307 307 306 306 306 306 307 307 307 307 307 307 307 307 307 307 308 308 307 306 304 303 302 301 299 298 296 293 290 288 285 283 282 279 276 271 266 261
317 320 317 316 325 334 337 340 347 349 351 357 357 358 5 9 9 12 14 14 13 10 8 4 359 354 348 343 337 330 323 316 312 308 306 304 303 302 302 303 304 306 308 309 310 309 308 308 308 308 308 308 308 308 307 307 307 307 306 306 307 307 307 308 307 306 305 304 303 301 300 298 297 294 292 288 285 283 281 280 279 277 273 269 263
314 318 320 322 333 340 340 341 344 342 343 349 351 355 3 7 7 8 6 2 358 354 351 350 350 348 345 342 340 337 333 328 323 319 315 311 308 307 306 305 306 307 308 310 310 310 310 310 310 310 310 309 308 307 307 307 307 306 307 307 308 308 307 307 306 305 304 303 302 300 299 298 297 295 292 289 285 283 280 278 277 275 272 268 265
303 308 313 320 334 339 337 337 337 334 335 340 345 354 3 360 355 351 346 342 340 338 338 340 343 343 340 338 336 335 333 330 326 322 319 316 314 312 310 309 309 309 309 310 310 310 311 311 311 311 310 309 309 308 308 308 308 309 309 309 309 308 308 307 306 305 303 301 300 298 297 296 296 294 292 289 286 283 281 278 275 272 270 267 265
295 299 304 309 319 326 325 327 330 333 336 338 340 346 346 338 334 331 330 331 332 331 332 335 337 337 335 333 332 330 329 326 323 319 317 316 314 313 312 311 310 310 310 310 310 311 311 312 312 311 310 310 309 309 309 310 311 311 310 310 309 309 308 307 306 305 303 302 300 298 296 295 293 292 290 288 285 283 281 278 275 271 268 265 263
295 301 304 305 308 311 312 316 323 330 334 336 337 334 328 326 326 324 324 327 328 326 326 327 329 329 329 328 327 326 325 323 320 317 315 314 313 312 310 310 310 310 310 310 311 312 312 313 312 312 311 311 310 311 312 312 312 311 311 311 311 310 309 308 307 306 305 304 303 301 299 297 294 291 289 286 284 282 280 278 276 272 267 264 261
300 305 308 308 303 302 306 309 316 324 330 335 337 333 325 323 324 322 322 323 323 321 319 320 322 324 324 324 323 322 322 322 320 317 315 315 315 313 311 310 310 311 311 312 312 313 314 314 314 313 312 313 313 314 314 313 312 312 313 312 312 311 311 310 310 309 308 307 305 303 301 298 295 292 289 286 284 282 281 279 277 273 268 264 260
306 307 307 306 303 302 306 307 310 317 324 328 328 324 320 319 318 318 318 317 316 315 313 314 317 319 321 320 320 320 321 321 321 319 318 317 316 314 313 312 312 312 313 314 315 316 316 315 315 315 315 316 316 315 315 314 315 315 314 314 313 313 313 313 312 311 309 308 306 304 301 300 298 295 293 290 288 286 284 282 279 275 270 266 261
308 309 308 308 306 307 309 309 310 312 313 311 310 310 311 311 311 311 311 310 309 309 309 310 312 315 317 317 318 320 321 320 321 320 319 317 316 315 314 313 313 314 315 317 317 317 317 316 317 318 318 318 316 316 316 317 317 316 316 316 316 316 315 313 312 310 309 308 306 304 303 301 300 298 296 294 292 290 287 283 279 275 272 268 263
307 310 315 319 317 314 312 310 310 310 307 305 303 303 303 304 305 306 305 305 305 304 305 307 310 313 314 315 318 321 320 320 320 319 318 317 316 315 315 315 316 317 318 318 318 318 318 319 320 319 318 317 317 318 318 318 317 317 317 318 317 316 314 313 311 310 309 308 306 305 304 304 303 302 299 297 295 293 288 283 278 275 272 269 265
307 311 320 326 323 314 308 305 306 305 304 304 304 303 302 303 303 304 304 304 303 303 304 306 311 314 315 316 319 320 319 318 318 318 318 317 317 317 318 318 319 319 318 319 319 319 320 320 319 318 318 319 319 319 319 318 319 319 319 319 317 316 314 313 311 310 309 309 308 307 307 306 305 303 301 299 296 292 288 284 280 276 272 269 265
307 311 318 320 311 300 297 300 303 302 299 299 300 301 302 303 303 304 304 303 303 303 306 309 313 315 316 317 318 317 316 317 317 317 318 318 319 320 320 320 319 319 319 320 321 321 321 320 319 320 321 321 320 320 320 320 321 320 320 319 317 316 315 314 313 313 312 311 310 309 308 307 305 303 301 298 295 292 289 288 285 280 275 271 267
307 308 308 307 303 300 298 298 298 298 297 297 296 297 298 299 300 302 303 303 303 304 306 309 312 314 315 316 316 315 315 317 318 319 320 321 322 322 321 321 321 321 322 322 322 321 321 321 322 323 323 322 322 322 322 322 322 321 320 320 319 318 318 318 317 316 314 312 310 309 308 306 304 302 299 297 296 295 294 292 289 286 281 274 268
305 303 301 300 300 302 302 297 294 294 295 295 294 294 295 296 297 300 301 301 300 302 305 308 310 312 314 314 314 314 316 318 320 322 323 323 323 323 322 322 322 323 323 323 322 322 323 325 325 325 324 324 324 324 323 323 323 322 321 322 322 322 321 320 319 317 315 313 311 310 309 307 304 302 301 302 302 300 297 294 292 289 285 279 272
304 301 300 299 297 298 300 299 296 295 294 293 291 291 292 294 296 297 298 298 299 302 305 307 308 310 312 313 313 315 318 321 324 325 325 326 325 324 323 323 324 324 324 324 324 326 327 327 327 327 327 326 326 325 325 325 324 323 323 324 325 324 324 322 320 318 315 313 312 312 311 309 308 308 308 308 304 300 298 297 295 291 287 281 275
305 301 299 297 296 297 301 303 303 303 301 297 294 294 295 296 297 298 299 300 302 303 304 305 306 308 311 313 315 319 323 326 327 328 328 327 325 323 324 325 325 325 326 327 328 329 329 329 329 329 329 328 328 328 327 326 326 325 326 327 328 327 326 324 321 318 316 314 313 313 312 310 310 312 311 307 303 302 302 301 299 296 289 283 276
299 296 295 295 298 303 308 310 312 313 308 301 297 294 294 296 299 301 302 302 302 303 304 305 308 311 314 316 321 326 329 330 330 330 328 326 325 325 326 327 327 328 329 330 331 331 331 331 331 331 330 331 331 330 329 328 329 329 330 331 331 330 328 325 322 319 316 316 315 314 311 310 310 312 311 310 308 308 310 310 308 305 297 287 276
291 294 299 305 312 316 319 322 324 321 311 301 295 291 292 295 300 302 303 303 305 306 308 311 314 318 321 325 329 333 334 333 332 330 328 327 327 328 329 329 330 331 332 333 333 333 334 333 333 333 333 334 334 332 331 332 333 335 335 335 334 333 330 327 324 320 318 318 317 314 311 311 314 316 317 318 318 318 321 321 315 308 299 285 267
295 309 318 320 324 327 327 328 328 323 315 306 301 299 300 302 303 306 309 311 313 315 318 322 325 327 330 333 336 336 336 335 332 330 330 330 330 331 332 333 333 334 334 335 335 336 335 335 335 335 337 338 337 336 336 338 340 340 340 339 337 334 331 328 325 322 321 321 320 317 316 319 323 324 324 325 326 330 334 330 321 320 319 297 236
317 327 331 327 327 331 332 331 326 320 316 312 308 308 310 312 316 320 324 326 327 330 332 335 337 338 338 339 339 339 338 336 333 333 333 333 334 335 335 335 336 336 336 337 337 338 337 337 338 340 342 341 340 341 343 345 345 344 343 341 339 336 333 330 326 323 324 326 325 324 324 327 329 328 329 332 336 341 345 342 341 359 12 23 113
321 329 334 334 333 333 332 333 332 329 327 327 325 326 331 335 339 341 341 342 344 346 347 348 347 345 344 343 343 341 339 336 335 335 335 336 337 337 337 338 338 338 338 339 339 340 340 341 344 346 347 346 346 347 350 351 350 348 345 342 340 338 335 332 328 326 329 332 332 330 329 330 333 333 334 339 346 354 358 356 360 19 38 64 100
292 309 321 330 335 331 323 326 337 347 356 0 358 356 356 355 354 354 355 357 357 357 356 355 352 349 347 346 344 341 338 337 337 337 338 338 339 339 339 339 340 340 340 341 341 342 344 346 350 352 352 352 353 354 355 355 354 351 348 345 342 340 338 335 332 331 335 338 336 332 329 332 337 340 342 347 357 7 11 12 17 29 48 75 101
288 290 299 316 331 327 312 318 335 349 3 9 8 6 4 360 358 1 2 3 2 0 359 357 353 351 349 346 343 340 339 339 338 339 340 340 340 340 341 341 341 342 342 343 344 346 349 352 355 355 356 357 359 360 359 358 356 353 350 347 345 343 342 340 337 336 340 343 340 334 333 340 346 351 355 359 8 19 25 29 36 45 57 77 98
296 297 295 302 317 325 325 332 339 349 1 5 4 4 4 360 358 1 4 4 3 2 360 357 355 353 351 348 344 341 340 340 340 341 341 341 341 341 342 343 343 344 345 346 348 350 354 357 358 358 359 1 3 4 3 1 358 355 352 349 348 347 346 345 342 341 344 347 346 342 343 351 358 4 11 17 24 33 38 42 50 60 67 79 96
284 294 295 298 309 323 334 338 341 350 1 3 358 358 360 360 0 3 5 5 5 4 2 360 358 357 354 352 350 347 344 343 342 342 342 342 342 343 343 344 345 346 348 349 351 354 358 360 359 359 1 4 7 7 6 3 0 357 354 352 351 351 352 351 349 347 349 352 352 351 353 1 8 15 27 38 42 45 48 51 55 63 71 81 91
276 288 293 295 301 311 328 339 343 350 0 360 352 347 346 349 354 359 1 0 360 359 357 355 353 352 351 351 352 351 348 345 343 343 343 343 343 344 345 346 347 349 350 353 355 358 1 1 0 0 3 6 8 9 7 6 3 360 357 357 357 356 358 358 357 356 355 357 359 360 0 8 18 25 37 52 58 58 59 60 64 70 77 85 91
280 285 290 292 289 287 300 324 339 350 358 356 349 344 339 337 339 344 348 349 349 350 349 348 347 346 346 348 350 351 349 347 345 344 344 344 344 345 347 348 350 351 354 356 359 1 2 1 1 1 3 7 9 9 8 7 5 3 2 2 2 2 3 4 4 3 1 3 6 7 7 11 22 33 46 62 72 75 76 75 78 84 89 93 98
288 289 290 290 284 277 279 292 306 321 333 335 336 339 341 341 338 338 339 340 342 343 343 341 341 341 343 346 348 349 349 347 345 345 345 345 345 347 348 350 352 354 357 359 1 2 2 2 1 2 4 7 9 9 9 9 8 7 6 6 7 8 8 8 10 10 8 9 12 14 14 15 20 33 52 69 81 89 94 97 97 100 103 105 108
291 292 292 292 289 283 281 284 287 295 305 313 315 318 320 323 324 327 330 330 331 332 331 330 332 335 339 342 345 347 347 346 345 345 345 345 346 348 350 352 354 357 360 1 3 3 3 2 2 2 4 8 10 10 10 11 11 11 11 12 13 13 13 13 14 15 15 15 16 18 22 23 24 31 49 71 86 94 104 111 113 116 118 118 119
293 293 291 291 291 289 287 287 287 290 295 299 299 299 301 303 305 308 311 313 316 318 321 322 326 331 335 339 342 345 346 345 344 345 345 345 347 349 351 353 357 360 1 3 3 4 4 3 2 2 4 8 11 11 12 14 14 14 15 17 18 19 19 18 18 19 20 20 19 19 23 28 31 35 44 65 90 105 113 117 123 129 134 137 137
298 300 296 292 291 291 290 290 291 292 293 293 292 293 296 299 300 302 304 306 309 314 318 321 325 329 333 337 340 343 344 344 343 344 344 345 348 350 352 355 359 1 3 4 4 4 4 4 3 3 5 9 11 12 14 16 17 17 18 20 21 22 23 23 23 23 23 23 22 21 22 25 30 36 42 54 79 107 119 123 129 136 143 149 153
303 308 309 305 300 298 296 295 295 296 297 297 296 296 297 300 301 302 303 305 309 314 318 322 325 327 330 334 339 341 342 342 342 343 344 345 348 351 353 356 0 3 4 4 4 5 5 4 4 4 6 9 12 13 15 17 19 20 21 23 24 24 25 26 27 27 26 26 25 24 24 23 25 29 37 47 61 84 111 128 136 141 149 157 161
306 306 309 311 310 307 304 300 298 298 298 299 300 300 301 302 303 303 305 307 311 315 318 322 325 326 328 332 337 340 341 341 341 343 344 346 349 351 353 357 2 4 4 4 4 5 5 5 5 5 6 9 13 15 16 18 20 21 23 25 27 28 28 28 29 29 30 29 28 28 28 28 26 25 29 37 50 66 92 122 138 145 153 162 168
309 306 306 308 310 309 308 306 304 302 302 303 303 305 306 306 306 308 310 312 314 317 320 323 324 325 327 332 336 338 339 339 340 342 344 346 350 352 354 358 3 5 5 4 4 4 5 6 6 7 7 10 13 16 18 20 21 22 24 26 28 30 31 31 32 31 32 32 32 31 31 31 31 30 29 33 41 53 74 104 131 146 154 162 170
310 310 309 309 310 311 310 311 311 311 310 309 308 308 309 309 309 311 313 315 317 319 322 324 324 325 328 332 336 337 337 337 339 342 344 347 351 353 355 359 4 6 6 5 4 4 5 6 7 8 9 11 13 17 19 21 23 24 25 26 28 30 32 33 34 34 34 35 35 35 35 34 34 35 36 38 41 46 57 79 109 135 151 160 168
306 309 310 310 311 312 313 314 315 316 315 314 313 313 313 313 314 314 316 318 319 321 322 323 324 326 329 332 334 335 335 336 339 342 344 347 351 353 355 360 5 7 6 5 3 3 5 6 7 9 11 12 14 16 20 23 24 25 26 27 29 32 33 34 35 36 36 37 37 38 39 39 39 40 42 44 47 50 53 59 79 111 139 156 166
302 306 309 310 310 312 313 314 315 315 315 315 316 317 318 319 319 319 320 322 323 323 323 323 325 326 328 331 332 332 333 335 339 342 344 347 351 353 355 0 7 9 7 5 3 3 4 6 8 10 13 15 15 16 20 24 26 26 27 29 31 33 35 36 36 37 38 39 40 41 42 42 42 44 46 49 52 55 57 58 59 70 98 132 155
301 304 306 308 309 310 312 313 314 315 315 316 316 317 319 320 321 323 323 324 325 325 325 325 325 325 326 328 329 329 331 335 339 342 344 347 351 354 355 1 8 10 8 6 4 3 4 7 9 11 14 17 18 18 20 25 28 29 29 30 33 35 37 38 39 39 39 40 41 43 44 46 46 47 49 53 57 59 61 62 61 58 58 69 99
302 303 304 306 307 308 309 311 312 313 314 315 316 316 317 318 319 322 323 324 325 327 327 327 325 324 324 325 325 325 329 334 338 341 343 347 351 353 355 1 9 12 10 7 5 4 4 7 10 13 17 20 21 21 22 26 30 32 32 33 35 37 39 41 42 43 43 42 43 43 45 47 49 49 51 54 58 61 64 65 64 62 59 57 57
302 302 303 303 304 306 307 308 308 309 311 313 315 316 316 317 318 320 323 324 326 327 328 328 326 324 323 322 321 322 327 333 337 340 342 346 350 352 355 1 9 13 12 9 6 5 5 8 12 17 21 24 25 25 26 29 33 35 36 37 38 40 42 43 44 45 46 46 46 46 47 48 49 51 52 54 56 60 62 64 65 65 64 63 62
302 302 303 303 303 304 305 306 307 309 310 312 315 317 318 318 318 319 322 325 327 327 328 328 328 325 322 320 318 318 323 330 336 339 341 344 349 352 354 360 9 15 14 12 9 6 6 10 16 22 26 29 30 30 31 34 37 39 40 40 42 43 44 45 46 47 48 49 49 50 50 50 51 52 53 55 56 58 60 62 63 64 65 65 64
302 302 303 302 303 303 304 306 308 310 312 315 318 320 320 319 318 318 320 324 327 326 325 326 327 326 322 318 314 315 319 326 333 337 339 342 347 351 353 358 8 16 16 14 11 9 8 12 21 28 33 36 37 36 37 39 42 43 44 44 45 46 47 47 48 49 49 50 51 51 52 53 53 53 54 55 57 59 60 61 62 63 64 64 65
301 301 302 302 303 303 304 305 307 309 311 316 319 319 318 317 317 317 318 322 325 325 324 324 325 324 321 316 311 311 316 323 329 335 337 340 344 349 352 356 6 16 18 16 14 12 11 17 27 35 40 44 45 45 44 46 47 48 49 49 49 50 51 50 50 50 50 51 52 52 53 54 54 54 54 55 56 57 59 61 62 63 64 64 65
299 299 299 300 301 302 303 304 305 307 309 309 308 310 314 317 318 318 320 322 324 325 324 323 322 321 319 314 309 308 312 318 324 330 335 337 340 346 351 355 3 15 20 19 17 15 15 22 35 43 48 51 53 53 52 53 54 54 55 55 55 56 55 55 53 52 52 52 53 53 54 55 55 55 55 55 56 56 57 58 60 61 61 62 63
296 296 296 297 298 300 301 302 303 305 307 306 305 308 312 314 315 317 321 323 325 326 325 323 321 319 316 312 307 305 308 313 318 324 330 334 336 343 349 353 360 12 20 21 20 19 20 29 43 51 55 57 58 59 59 59 59 60 60 60 61 61 60 59 58 57 56 55 55 55 55 56 57 57 57 57 57 57 57 58 58 58 59 59 60
292 292 293 295 296 297 298 299 300 302 304 306 308 311 313 315 317 319 319 318 319 323 324 323 321 318 314 310 307 304 305 308 311 316 324 330 332 338 346 350 356 8 20 23 23 22 26 38 51 58 61 62 62 62 62 63 63 63 63 63 63 63 63 63 62 61 59 59 58 58 57 57 58 58 58 58 58 58 58 58 58 58 58 58 58
288 289 290 291 292 293 293 294 296 298 300 303 307 310 312 315 319 317 311 307 308 313 318 321 321 317 312 308 306 303 302 303 305 309 317 324 328 333 342 348 353 3 16 25 26 26 33 48 59 64 66 66 65 65 64 64 64 64 63 63 62 62 62 62 62 62 62 61 60 59 59 59 59 59 60 60 60 60 59 59 59 59 59 59 59
Height
10937 10935 10932 10930 10927 10924 10922 10920 10919 10917 10916 10915 10914 10913 10912 10911 10910 10909 10908 10906 10905 10904 10903 10902 10901 10901 10900 10900 10899 10898 10897 10896 10894 10893 10892 10890 10888 10886 10884 10882 10880 10878 10876 10874 10872 10870 10868 10865 10863 10860 10857 10854 10851 10847 10844 10841 10838 10834 10830 10827 10824 10821 10818 10814 10810 10805 10802 10798 10794 10789 10784 10780 10776 10773 10770 10768 10766 10765 10764 10763 10762 10763 10764 10765 10766
10936 10935 10932 10930 10928 10926 10923 10921 10920 10918 10917 10915 10913 10912 10910 10909 10908 10907 10906 10905 10903 10902 10901 10900 10900 10899 10898 10898 10897 10896 10895 10893 10892 10890 10888 10886 10884 10882 10880 10878 10876 10874 10871 10869 10867 10865 10862 10860 10857 10855 10852 10849 10845 10841 10837 10834 10830 10827 10822 10818 10814 10810 10806 10802 10798 10794 10790 10785 10782 10777 10772 10768 10764 10759 10755 10752 10750 10750 10749 10749 10748 10748 10749 10750 10752
10935 10933 10931 10929 10928 10926 10923 10921 10920 10918 10917 10915 10913 10911 10909 10908 10907 10906 10905 10903 10902 10901 10900 10899 10898 10897 10896 10896 10895 10894 10892 10890 10889 10887 10885 10883 10880 10878 10876 10874 10871 10869 10866 10864 10862 10859 10857 10854 10851 10849 10846 10843 10840 10836 10831 10827 10823 10818 10814 10809 10805 10800 10796 10792 10788 10782 10777 10772 10768 10765 10760 10756 10752 10747 10743 10738 10734 10732 10733 10734 10734 10734 10735 10736 10738
10933 10931 10929 10928 10926 10925 10923 10921 10919 10918 10917 10916 10914 10911 10909 10908 10907 10906 10904 10903 10902 10901 10899 10898 10897 10896 10895 10894 10892 10891 10889 10887 10885 10883 10881 10879 10876 10874 10871 10869 10867 10864 10861 10859 10856 10853 10851 10848 10845 10842 10839 10836 10833 10829 10825 10820 10815 10810 10805 10800 10795 10791 10786 10782 10777 10772 10766 10759 10753 10750 10747 10743 10739 10735 10731 10727 10721 10717 10716 10717 10719 10721 10722 10723 10724
10931 10929 10927 10926 10924 10923 10921 10919 10917 10916 10916 10915 10914 10911 10909 10907 10906 10905 10903 10902 10901 10900 10899 10897 10896 10895 10894 10892 10890 10888 10886 10884 10882 10880 10877 10875 10872 10869 10867 10864 10862 10859 10856 10853 10851 10848 10845 10842 10839 10836 10832 10829 10825 10821 10816 10812 10807 10802 10797 10791 10786 10781 10776 10772 10767 10762 10756 10748 10741 10735 10732 10729 10726 10722 10720 10716 10711 10706 10704 10702 10703 10706 10708 10709 10712
10929 10927 10925 10924 10922 10920 10919 10917 10916 10915 10914 10914 10912 10910 10908 10906 10904 10903 10902 10901 10899 10898 10897 10896 10895 10894 10892 10890 10888 10886 10883 10881 10879 10876 10873 10870 10868 10865 10862 10859 10857 10854 10851 10848 10845 10842 10839 10835 10832 10828 10824 10821 10817 10813 10808 10804 10799 10794 10789 10783 10777 10772 10766 10762 10757 10751 10744 10737 10729 10721 10716 10714 10712 10709 10707 10705 10700 10696 10695 10693 10691 10692 10694 10695 10697
10926 10925 10923 10922 10920 10918 10917 10916 10914 10913 10912 10912 10910 10908 10906 10905 10903 10902 10900 10899 10898 10896 10895 10894 10893 10891 10889 10887 10885 10883 10880 10878 10875 10872 10869 10866 10863 10860 10858 10855 10852 10849 10846 10843 10839 10836 10832 10829 10825 10821 10817 10813 10809 10805 10800 10795 10790 10785 10780 10773 10767 10761 10755 10750 10745 10739 10732 10725 10717 10710 10703 10699 10698 10695 10693 10691 10687 10684 10684 10684 10683 10682 10681 10682 10683
10924 10922 10921 10920 10918 10917 10915 10914 10913 10912 10911 10910 10908 10906 10905 10903 10902 10900 10899 10897 10895 10894 10892 10891 10890 10888 10886 10884 10881 10879 10877 10874 10871 10868 10865 10862 10859 10856 10853 10850 10847 10844 10840 10837 10833 10830 10826 10822 10818 10814 10810 10805 10800 10795 10790 10785 10779 10773 10767 10761 10755 10749 10743 10737 10731 10725 10720 10714 10708 10702 10696 10691 10688 10684 10680 10678 10675 10672 10671 10673 10674 10673 10671 10671 10671
10921 10920 10918 10917 10916 10915 10914 10912 10911 10910 10909 10907 10906 10904 10903 10901 10899 10898 10896 10895 10893 10891 10890 10888 10887 10885 10883 10880 10878 10875 10873 10870 10867 10864 10860 10857 10854 10851 10848 10845 10842 10838 10835 10831 10827 10823 10819 10815 10811 10807 10802 10797 10792 10786 10781 10775 10769 10762 10755 10748 10742 10735 10730 10723 10716 10711 10706 10701 10697 10692 10688 10684 10680 10676 10672 10668 10664 10661 10660 10661 10663 10664 10663 10662 10661
10918 10917 10916 10915 10914 10912 10911 10910 10909 10908 10906 10905 10904 10901 10899 10898 10897 10895 10894 10892 10891 10889 10887 10886 10884 10882 10880 10877 10875 10872 10869 10866 10862 10859 10855 10852 10849 10846 10843 10840 10836 10833 10829 10825 10821 10817 10812 10808 10803 10798 10793 10788 10783 10777 10771 10765 10758 10751 10744 10737 10728 10721 10714 10708 10701 10696 10691 10687 10684 10679 10676 10673 10670 10666 10663 10659 10655 10652 10651 10650 10651 10653 10653 10653 10652
10915 10914 10913 10912 10910 10909 10908 10908 10907 10905 10903 10901 10900 10898 10896 10895 10894 10893 10892 10890 10888 10887 10885 10882 10880 10878 10876 10873 10871 10868 10865 10861 10857 10853 10850 10846 10843 10840 10836 10833 10830 10826 10822 10818 10814 10809 10805 10800 10795 10790 10784 10778 10772 10766 10760 10754 10747 10740 10732 10725 10716 10707 10699 10693 10686 10682 10677 10674 10671 10667 10663 10661 10659 10655 10652 10650 10647 10644 10642 10641 10641 10642 10643 10643 10644
10912 10911 10910 10909 10908 10907 10906 10905 10904 10902 10900 10898 10897 10895 10894 10892 10891 10890 10889 10887 10886 10884 10882 10879 10877 10875 10872 10870 10867 10864 10860 10856 10852 10848 10845 10841 10837 10834 10830 10827 10824 10820 10816 10811 10807 10802 10797 10792 10786 10780 10774 10767 10760 10754 10747 10741 10734 10726 10719 10711 10704 10695 10687 10680 10674 10669 10666 10662 10659 10656 10652 10649 10648 10645 10641 10639 10637 10635 10633 10631 10631 10631 10632 10633 10634
10910 10909 10909 10908 10907 10905 10904 10903 10901 10899 10897 10895 10894 10893 10891 10890 10888 10887 10885 10884 10882 10880 10878 10876 10873 10871 10869 10866 10863 10860 10856 10852 10847 10843 10840 10836 10832 10828 10825 10821 10817 10814 10809 10805 10800 10795 10789 10784 10778 10771 10764 10758 10750 10743 10736 10728 10720 10713 10705 10698 10691 10684 10678 10671 10665 10660 10656 10653 10650 10646 10642 10639 10637 10635 10632 10629 10627 10626 10624 10623 10622 10622 10622 10623 10625
10907 10907 10907 10906 10905 10904 10902 10900 10898 10896 10894 10892 10891 10889 10888 10887 10885 10883 10881 10879 10878 10877 10875 10872 10870 10868 10865 10862 10859 10855 10851 10847 10843 10839 10835 10831 10827 10824 10820 10816 10812 10807 10803 10798 10793 10788 10782 10776 10769 10763 10757 10750 10742 10734 10726 10718 10710 10702 10694 10687 10681 10674 10669 10663 10657 10652 10648 10644 10641 10638 10634 10631 10628 10626 10623 10620 10618 10617 10615 10614 10614 10613 10613 10614 10615
10905 10905 10905 10906 10905 10903 10900 10897 10894 10893 10891 10889 10887 10886 10885 10884 10882 10880 10877 10875 10873 10872 10871 10869 10866 10863 10860 10857 10854 10850 10846 10842 10838 10834 10831 10827 10823 10819 10815 10811 10807 10802 10798 10793 10788 10782 10775 10769 10763 10757 10750 10742 10733 10725 10717 10709 10701 10693 10685 10678 10672 10666 10660 10655 10651 10646 10642 10637 10634 10631 10627 10624 10621 10619 10616 10614 10612 10610 10608 10606 10606 10606 10606 10606 10607
10903 10903 10905 10908 10906 10900 10896 10893 10891 10889 10888 10886 10884 10882 10881 10880 10878 10876 10874 10871 10869 10867 10866 10864 10862 10859 10856 10853 10850 10847 10843 10838 10834 10830 10827 10823 10819 10815 10811 10807 10802 10798 10793 10788 10783 10777 10770 10763 10757 10750 10742 10733 10724 10715 10707 10699 10691 10684 10677 10670 10664 10659 10653 10648 10644 10640 10636 10632 10628 10624 10621 10618 10615 10613 10610 10609 10607 10604 10602 10600 10599 10598 10598 10598 10599
10901 10901 10903 10905 10902 10897 10893 10891 10888 10886 10885 10883 10881 10879 10878 10876 10874 10872 10870 10867 10865 10863 10861 10859 10857 10854 10852 10849 10846 10843 10838 10834 10830 10826 10823 10819 10815 10811 10807 10802 10798 10793 10787 10782 10776 10771 10765 10757 10749 10741 10733 10724 10715 10705 10697 10689 10682 10675 10669 10663 10657 10652 10647 10642 10637 10633 10629 10626 10623 10620 10617 10614 10611 10608 10606 10604 10602 10599 10597 10595 10593 10592 10592 10592 10592
10900 10899 10898 10898 10897 10894 10891 10889 10885 10883 10881 10879 10877 10876 10874 10872 10871 10868 10866 10863 10861 10859 10857 10855 10853 10850 10848 10845 10842 10838 10834 10830 10826 10823 10819 10815 10811 10807 10803 10798 10793 10788 10782 10776 10770 10764 10757 10750 10742 10733 10724 10715 10707 10698 10689 10682 10675 10668 10662 10656 10650 10644 10640 10636 10631 10627 10623 10619 10616 10614 10612 10609 10607 10605 10603 10600 10598 10595 10593 10591 10589 10588 10587 10586 10586
10896 10895 10893 10891 10890 10888 10887 10885 10882 10879 10877 10875 10873 10872 10870 10869 10867 10865 10862 10860 10857 10855 10853 10851 10849 10846 10844 10841 10838 10834 10830 10826 10823 10819 10816 10812 10808 10803 10798 10794 10788 10783 10777 10771 10764 10757 10749 10742 10734 10725 10716 10707 10698 10690 10682 10676 10669 10662 10656 10650 10644 10639 10634 10631 10626 10622 10618 10614 10611 10608 10606 10604 10602 10601 10599 10597 10595 10593 10591 10588 10586 10584 10583 10582 10582
10892 10889 10887 10886 10884 10882 10880 10878 10875 10873 10872 10870 10868 10867 10866 10865 10863 10861 10858 10856 10854 10851 10849 10847 10845 10843 10840 10837 10834 10830 10827 10823 10819 10816 10812 10808 10804 10799 10794 10788 10783 10778 10772 10766 10758 10751 10742 10734 10725 10716 10707 10699 10691 10683 10676 10669 10663 10657 10651 10646 10640 10635 10630 10626 10622 10618 10614 10610 10607 10605 10602 10600 10598 10597 10596 10594 10592 10590 10588 10585 10582 10581 10579 10579 10579
10886 10884 10882 10881 10879 10876 10874 10872 10870 10869 10867 10866 10864 10863 10862 10860 10859 10857 10855 10853 10850 10848 10846 10844 10841 10839 10836 10833 10830 10827 10823 10820 10816 10813 10809 10805 10800 10795 10789 10784 10778 10773 10767 10760 10752 10744 10735 10726 10718 10710 10701 10693 10685 10677 10670 10664 10657 10652 10646 10641 10636 10631 10626 10622 10618 10614 10610 10607 10605 10602 10599 10597 10596 10595 10593 10591 10589 10587 10585 10583 10580 10578 10577 10576 10577
10880 10878 10877 10876 10873 10871 10869 10868 10866 10865 10864 10862 10861 10860 10858 10857 10856 10854 10852 10850 10847 10845 10843 10840 10838 10835 10833 10830 10827 10824 10820 10817 10813 10809 10806 10802 10797 10791 10785 10780 10774 10767 10761 10754 10746 10738 10729 10720 10712 10704 10696 10688 10681 10673 10665 10659 10652 10647 10641 10636 10631 10626 10622 10618 10615 10611 10608 10605 10602 10600 10598 10596 10594 10592 10590 10588 10586 10584 10583 10581 10579 10578 10577 10576 10576
10875 10873 10872 10871 10869 10868 10866 10864 10863 10862 10860 10859 10858 10856 10855 10854 10852 10850 10848 10846 10844 10842 10840 10837 10835 10832 10830 10827 10824 10821 10818 10814 10811 10807 10803 10798 10792 10787 10782 10776 10769 10763 10756 10748 10740 10731 10723 10715 10707 10699 10692 10684 10677 10670 10662 10654 10648 10642 10637 10632 10627 10622 10619 10615 10611 10608 10605 10603 10600 10598 10595 10593 10592 10590 10588 10586 10585 10583 10581 10580 10579 10577 10577 10576 10575
10871 10869 10868 10866 10865 10864 10862 10861 10859 10858 10856 10855 10854 10852 10851 10849 10848 10846 10844 10843 10841 10839 10837 10835 10833 10831 10828 10825 10822 10819 10816 10812 10809 10804 10800 10794 10789 10784 10778 10772 10765 10758 10750 10742 10734 10726 10718 10710 10702 10694 10687 10680 10673 10666 10659 10651 10644 10638 10633 10628 10624 10620 10616 10612 10609 10605 10603 10601 10598 10595 10593 10591 10590 10588 10587 10585 10584 10582 10581 10580 10578 10577 10576 10576 10576
10866 10865 10863 10862 10861 10860 10859 10858 10857 10855 10854 10852 10850 10849 10847 10846 10845 10844 10843 10841 10839 10837 10835 10833 10832 10829 10827 10824 10820 10817 10814 10811 10807 10802 10797 10792 10787 10781 10775 10769 10762 10754 10746 10737 10729 10721 10713 10705 10697 10690 10682 10675 10668 10661 10654 10648 10642 10636 10631 10626 10621 10617 10614 10610 10607 10603 10601 10598 10596 10593 10592 10590 10589 10587 10585 10584 10583 10582 10581 10580 10579 10577 10577 10577 10577
10861 10861 10860 10859 10858 10858 10857 10857 10857 10855 10853 10850 10848 10847 10846 10845 10844 10844 10842 10839 10837 10835 10834 10832 10830 10828 10825 10822 10819 10816 10813 10809 10804 10799 10794 10789 10784 10778 10772 10765 10758 10750 10742 10734 10726 10718 10710 10702 10694 10686 10679 10671 10664 10657 10650 10644 10639 10633 10629 10624 10619 10615 10612 10608 10605 10602 10599 10597 10595 10593 10591 10590 10588 10587 10585 10584 10583 10582 10581 10580 10579 10579 10579 10578 10578
10857 10858 10858 10857 10857 10857 10857 10857 10856 10854 10852 10849 10848 10847 10846 10846 10845 10843 10840 10838 10836 10835 10833 10832 10830 10828 10825 10822 10819 10815 10811 10807 10802 10797 10792 10787 10781 10775 10769 10763 10756 10748 10740 10732 10723 10716 10708 10699 10692 10684 10677 10669 10661 10654 10647 10641 10636 10631 10626 10622 10618 10614 10610 10607 10604 10601 10598 10596 10594 10593 10591 10590 10588 10587 10585 10584 10583 10582 10582 10581 10581 10581 10581 10581 10581
10857 10857 10857 10856 10856 10856 10856 10856 10855 10853 10850 10849 10848 10848 10848 10847 10845 10843 10840 10838 10836 10835 10833 10832 10830 10827 10825 10822 10819 10815 10810 10805 10800 10795 10790 10785 10779 10773 10767 10760 10753 10745 10737 10729 10721 10714 10706 10698 10691 10685 10678 10670 10661 10653 10646 10640 10634 10630 10625 10621 10617 10613 10609 10606 10603 10601 10598 10596 10595 10593 10591 10589 10588 10587 10586 10585 10584 10583 10582 10582 10582 10582 10582 10582 10582
10857 10857 10857 10856 10857 10856 10855 10853 10853 10851 10850 10849 10849 10849 10849 10848 10845 10842 10840 10838 10837 10835 10833 10831 10829 10827 10825 10822 10818 10813 10808 10804 10798 10793 10788 10783 10777 10771 10765 10758 10751 10743 10736 10728 10720 10712 10705 10697 10691 10684 10677 10669 10660 10653 10646 10640 10635 10630 10625 10621 10617 10613 10610 10607 10604 10601 10599 10597 10595 10593 10591 10590 10588 10588 10587 10586 10585 10584 10583 10583 10583 10583 10583 10584 10584
10857 10856 10856 10856 10857 10856 10854 10852 10852 10851 10851 10851 10851 10849 10848 10847 10845 10842 10840 10838 10837 10835 10833 10832 10829 10827 10825 10821 10817 10812 10807 10802 10797 10792 10787 10782 10776 10770 10764 10757 10749 10742 10734 10727 10719 10712 10704 10697 10691 10684 10676 10668 10660 10653 10647 10641 10636 10631 10626 10622 10617 10613 10610 10607 10604 10602 10599 10597 10595 10593 10592 10590 10589 10588 10587 10586 10586 10585 10585 10584 10584 10584 10585 10585 10585
10858 10857 10856 10856 10856 10855 10854 10853 10852 10852 10851 10850 10849 10847 10846 10844 10843 10842 10840 10838 10837 10835 10834 10832 10829 10827 10823 10820 10815 10810 10805 10800 10796 10791 10786 10780 10775 10769 10763 10756 10749 10741 10734 10726 10719 10712 10705 10698 10691 10685 10677 10669 10662 10655 10649 10643 10638 10633 10628 10623 10618 10614 10611 10608 10605 10603 10600 10598 10596 10594 10593 10591 10590 10589 10588 10587 10587 10586 10586 10586 10586 10586 10586 10587 10588
10857 10856 10856 10856 10855 10854 10853 10852 10852 10851 10849 10848 10847 10845 10844 10842 10841 10840 10839 10837 10836 10835 10833 10831 10828 10825 10822 10818 10813 10809 10804 10799 10794 10789 10784 10779 10774 10768 10762 10755 10748 10741 10734 10726 10720 10713 10707 10700 10694 10687 10679 10672 10665 10658 10653 10647 10641 10636 10630 10625 10620 10616 10612 10609 10606 10604 10602 10599 10597 10595 10594 10592 10591 10590 10589 10588 10588 10587 10587 10587 10587 10588 10588 10589 10590
10857 10856 10855 10854 10853 10853 10852 10851 10850 10849 10848 10846 10845 10843 10842 10841 10839 10838 10837 10835 10834 10833 10831 10829 10826 10823 10820 10816 10812 10807 10803 10798 10793 10788 10784 10779 10774 10768 10761 10754 10748 10741 10734 10727 10721 10715 10709 10703 10696 10689 10682 10675 10668 10663 10657 10651 10645 10640 10634 10629 10623 10619 10614 10611 10608 10605 10603 10601 10599 10597 10595 10593 10592 10591 10590 10589 10589 10589 10588 10588 10589 10589 10590 10590 10591
10856 10854 10853 10852 10851 10851 10850 10850 10849 10848 10847 10845 10843 10842 10840 10839 10837 10836 10834 10833 10832 10831 10829 10827 10824 10821 10818 10814 10810 10806 10802 10797 10792 10788 10784 10779 10774 10768 10762 10755 10748 10742 10735 10729 10723 10717 10712 10706 10700 10693 10686 10679 10673 10667 10661 10655 10648 10643 10637 10632 10627 10622 10617 10613 10610 10607 10604 10602 10600 10598 10596 10595 10593 10592 10591 10590 10590 10590 10589 10590 10590 10590 10591 10591 10592
10854 10853 10851 10850 10849 10848 10848 10847 10846 10846 10846 10845 10843 10841 10839 10837 10835 10833 10832 10831 10830 10829 10827 10824 10822 10819 10816 10812 10809 10805 10801 10796 10792 10788 10784 10779 10774 10768 10762 10756 10750 10743 10737 10732 10726 10720 10714 10709 10703 10697 10690 10683 10677 10671 10665 10659 10653 10646 10640 10635 10630 10625 10621 10616 10612 10609 10606 10603 10601 10599 10597 10595 10594 10593 10592 10591 10591 10590 10590 10590 10591 10591 10592 10592 10593
10850 10849 10849 10847 10846 10846 10845 10844 10843 10843 10842 10841 10841 10839 10837 10834 10832 10831 10830 10828 10828 10826 10825 10822 10819 10817 10814 10811 10807 10803 10800 10796 10792 10788 10784 10780 10775 10769 10763 10757 10751 10745 10739 10734 10728 10723 10718 10713 10707 10701 10695 10688 10681 10675 10669 10663 10657 10651 10645 10640 10634 10629 10625 10620 10616 10612 10608 10605 10602 10600 10598 10596 10595 10593 10592 10592 10591 10591 10591 10591 10591 10592 10592 10593 10594
10847 10846 10846 10845 10844 10843 10842 10841 10840 10840 10839 10838 10837 10836 10833 10831 10830 10829 10827 10826 10825 10824 10822 10820 10817 10815 10812 10809 10806 10802 10799 10795 10791 10788 10784 10780 10775 10770 10764 10758 10752 10747 10741 10736 10731 10726 10721 10716 10711 10705 10699 10693 10686 10680 10674 10668 10662 10656 10651 10645 10639 10634 10629 10624 10619 10615 10611 10607 10604 10601 10598 10597 10595 10594 10593 10592 10591 10591 10591 10591 10592 10592 10592 10593 10594
10845 10844 10844 10843 10842 10841 10840 10839 10837 10836 10836 10835 10833 10832 10830 10828 10827 10826 10825 10824 10822 10821 10819 10817 10815 10813 10810 10808 10805 10801 10798 10794 10791 10787 10784 10780 10775 10770 10765 10759 10754 10748 10743 10739 10734 10729 10725 10720 10715 10710 10704 10698 10691 10685 10680 10674 10668 10662 10656 10650 10644 10639 10634 10629 10624 10619 10614 10610 10606 10603 10600 10598 10596 10594 10593 10592 10592 10592 10591 10592 10592 10592 10593 10593 10594
10844 10843 10841 10841 10840 10839 10838 10837 10835 10834 10833 10831 10830 10829 10828 10826 10825 10824 10822 10821 10819 10818 10816 10814 10812 10810 10808 10806 10803 10800 10797 10794 10791 10787 10784 10780 10776 10771 10766 10761 10755 10750 10746 10741 10737 10732 10728 10723 10719 10714 10708 10703 10697 10691 10685 10679 10674 10668 10662 10656 10650 10644 10639 10634 10629 10624 10619 10614 10610 10606 10602 10599 10597 10595 10594 10593 10593 10592 10592 10592 10592 10593 10593 10594 10595
10842 10841 10839 10838 10838 10837 10836 10835 10833 10832 10830 10829 10828 10827 10826 10824 10822 10821 10820 10818 10817 10815 10813 10812 10810 10808 10806 10804 10802 10799 10797 10794 10791 10787 10784 10781 10776 10772 10767 10762 10757 10752 10748 10744 10740 10735 10731 10726 10722 10718 10713 10707 10702 10696 10691 10685 10680 10674 10669 10663 10656 10650 10644 10639 10634 10629 10624 10619 10614 10610 10606 10602 10599 10597 10595 10594 10593 10593 10593 10593 10593 10593 10594 10594 10595
10841 10839 10838 10837 10835 10835 10834 10833 10831 10830 10828 10827 10826 10825 10824 10822 10820 10818 10817 10815 10814 10812 10811 10809 10807 10806 10804 10802 10800 10798 10796 10793 10790 10787 10784 10781 10777 10773 10768 10763 10758 10754 10750 10746 10742 10738 10734 10729 10725 10721 10717 10712 10707 10702 10696 10691 10686 10680 10675 10669 10663 10657 10651 10645 10640 10634 10630 10625 10620 10615 10610 10606 10603 10600 10597 10596 10594 10594 10594 10594 10594 10594 10595 10595 10596
10839 10838 10836 10835 10833 10832 10831 10831 10829 10828 10826 10825 10824 10822 10821 10819 10818 10816 10814 10813 10811 10810 10808 10807 10805 10804 10802 10800 10798 10796 10795 10792 10790 10787 10784 10781 10778 10773 10769 10764 10760 10755 10751 10748 10744 10741 10737 10732 10728 10724 10720 10716 10712 10707 10702 10696 10691 10686 10681 10675 10670 10664 10658 10652 10646 10640 10635 10630 10625 10621 10616 10612 10608 10605 10601 10599 10597 10596 10595 10595 10596 10596 10596 10597 10597
10836 10836 10835 10833 10832 10830 10829 10828 10827 10826 10824 10823 10821 10820 10818 10817 10816 10814 10812 10810 10809 10808 10807 10805 10804 10802 10801 10799 10797 10795 10793 10791 10789 10787 10784 10781 10778 10774 10770 10765 10761 10757 10753 10750 10746 10743 10739 10736 10731 10727 10723 10719 10716 10712 10707 10702 10697 10692 10687 10682 10676 10671 10665 10659 10653 10647 10642 10637 10632 10627 10623 10618 10614 10610 10607 10604 10601 10600 10599 10598 10598 10598 10598 10598 10599
10833 10833 10832 10832 10830 10829 10828 10826 10825 10824 10823 10821 10819 10818 10816 10815 10814 10812 10810 10808 10807 10806 10805 10804 10802 10801 10799 10797 10795 10794 10792 10791 10789 10786 10784 10781 10778 10774 10771 10766 10762 10758 10755 10752 10749 10746 10742 10739 10735 10731 10727 10723 10719 10716 10712 10707 10702 10698 10693 10688 10683 10678 10672 10667 10661 10656 10650 10646 10641 10635 10630 10626 10621 10617 10614 10611 10608 10605 10604 10602 10601 10601 10600 10600 10600
10830 10830 10829 10829 10828 10827 10826 10824 10823 10821 10820 10819 10818 10816 10814 10813 10812 10810 10809 10807 10805 10804 10803 10802 10801 10799 10798 10796 10795 10793 10792 10790 10788 10786 10783 10781 10778 10775 10771 10767 10763 10759 10756 10753 10751 10748 10745 10742 10738 10734 10730 10726 10723 10719 10716 10712 10707 10703 10699 10694 10689 10685 10680 10675 10669 10664 10659 10654 10649 10644 10639 10635 10630 10626 10623 10619 10616 10613 10610 10608 10606 10605 10604 10603 10603
10827 10826 10826 10825 10825 10824 10823 10822 10820 10819 10818 10817 10816 10814 10812 10810 10809 10808 10807 10805 10804 10802 10801 10800 10799 10798 10796 10795 10793 10792 10791 10789 10788 10785 10783 10781 10779 10776 10772 10769 10764 10761 10758 10755 10752 10750 10747 10745 10741 10737 10733 10730 10726 10723 10720 10716 10712 10708 10704 10700 10696 10691 10686 10682 10677 10672 10667 10662 10657 10652 10648 10644 10640 10636 10632 10629 10625 10621 10618 10616 10614 10612 10610 10609 10607
10823 10823 10822 10821 10821 10821 10820 10819 10818 10817 10816 10816 10815 10812 10809 10808 10806 10805 10804 10803 10802 10801 10799 10798 10797 10796 10795 10793 10792 10791 10789 10788 10787 10785 10783 10781 10779 10776 10773 10769 10766 10762 10759 10756 10754 10752 10750 10747 10744 10741 10737 10733 10730 10727 10724 10720 10716 10713 10709 10705 10701 10697 10693 10688 10684 10679 10675 10670 10666 10661 10657 10652 10648 10644 10641 10637 10634 10630 10627 10624 10622 10620 10617 10616 10614
10820 10819 10818 10818 10817 10817 10817 10816 10816 10814 10814 10813 10812 10809 10807 10805 10804 10803 10802 10801 10800 10799 10798 10796 10795 10794 10793 10792 10790 10789 10788 10787 10785 10784 10782 10780 10778 10776 10773 10770 10767 10763 10760 10758 10756 10753 10752 10750 10747 10744 10740 10737 10734 10730 10727 10724 10721 10717 10714 10711 10707 10703 10698 10694 10690 10686 10682 10678 10674 10669 10665 10661 10657 10653 10650 10646 10643 10639 10636 10633 10630 10627 10625 10623 10620
10817 10816 10815 10814 10814 10813 10813 10813 10813 10812 10811 10810 10808 10807 10806 10805 10803 10802 10800 10799 10798 10797 10796 10794 10793 10792 10791 10790 10789 10787 10786 10785 10784 10783 10781 10780 10778 10776 10773 10771 10768 10764 10761 10759 10757 10755 10753 10752 10750 10747 10744 10740 10737 10734 10731 10728 10725 10722 10719 10716 10712 10708 10704 10700 10697 10693 10689 10685 10681 10677 10673 10669 10665 10661 10658 10655 10651 10648 10644 10641 10638 10635 10632 10630 10627
10813 10812 10811 10811 10810 10810 10809 10809 10809 10809 10809 10807 10806 10805 10804 10803 10802 10801 10799 10797 10795 10794 10794 10792 10791 10790 10789 10788 10787 10785 10784 10783 10782 10781 10780 10779 10777 10775 10773 10771 10768 10765 10763 10760 10758 10757 10755 10754 10752 10749 10746 10743 10741 10738 10735 10732 10729 10726 10724 10721 10717 10714 10710 10706 10703 10700 10697 10693 10689 10685 10681 10677 10673 10669 10666 10662 10659 10656 10653 10649 10646 10643 10640 10638 10635
10809 10809 10808 10807 10807 10806 10806 10806 10806 10806 10806 10805 10804 10803 10802 10801 10800 10799 10797 10795 10794 10793 10791 10790 10789 10788 10787 10786 10785 10783 10782 10781 10780 10779 10778 10777 10776 10775 10773 10771 10769 10766 10764 10761 10760 10758 10757 10755 10753 10751 10749 10746 10744 10741 10738 10736 10733 10730 10728 10725 10722 10719 10715 10712 10709 10706 10704 10700 10697 10693 10689 10686 10682 10678 10674 10670 10667 10664 10661 10658 10655 10652 10649 10646 10644